User: anonymous   Login
Location: Caltech
(34.1382°N, 118.1253°W)
Time: 13:41:42
(UTC-07:00)
Language:

UOSAT-12 - Orbit

View from above orbital plane
View from above orbital plane
View from above satellite
View from above satellite

Ground track
Ground track

The orbit data is extracted from the following two-line orbital elements,

1 25693U 99021A   17142.72648388 -.00000050 +00000-0 +12535-4 0  9993
2 25693 064.5553 204.1541 0032679 313.8117 046.0287 14.80734119976123
Epoch (UTC): 22 May 2017 17:26:08
Eccentricity: 0.0032679
inclination: 64.5553°
perigee height: 604 km
apogee height: 650 km
right ascension of ascending node: 204.1541°
argument of perigee: 313.8117°
revolutions per day: 14.80734119
mean anomaly at epoch: 46.0287°
orbit number at epoch: 97612

The dashed part of the orbit path shows where the satellite is in the earth's shadow,  

DLR